[Iaude] MPEC U263: 2022 SL301 [a=1.97,e=0.54,i=11.4,H=31.0]

mpec at marsden.cfa.harvard.edu mpec at marsden.cfa.harvard.edu
Wed Oct 25 17:30:51 EDT 2023


M.P.E.C. 2023-U263                             Issued 2023 October 25, 21:29 UT

     The Minor Planet Electronic Circulars contain information on unusual
         minor planets, routine data on comets and natural satellites,
         and occasional editorial announcements.  They are published
    on behalf of Division F of the International Astronomical Union by the
          Minor Planet Center, Smithsonian Astrophysical Observatory,
                          Cambridge, MA 02138, U.S.A.
			  
             Prepared using the Tamkin Foundation Computer Network

                              MPC at CFA.HARVARD.EDU
            URL https://www.minorplanetcenter.net/    ISSN 1523-6714

                                   2022 SL301                                   


Observations:
     K22SU1L* C2022 09 19.68174701 04 20.100-11 04 00.95         18.1 GVEU263P07
     K22SU1L  C2022 09 19.73478901 26 01.903-01 52 28.70         17.5 GVEU263P07
     K22SU1L  C2022 09 19.73800301 27 35.218-01 12 08.64         17.8 GVEU263P07
     K22SU1L  C2022 09 19.78585301 55 05.105+10 32 53.92         17.6 GVEU263P07
     K22SU1L  C2022 09 19.84629302 45 27.228+29 00 15.84         17.4 GVEU263P07

Observer details:
P07 Space Surveillance Telescope, HEH Station.  Observers M. Blythe, R.
    Brungard, P. Festler, T. McVey, J. Paige, G. Spitz, L. Banks.  Measurers
    M. Cornell, M. Kotson, R. Rios, J. Ruprecht, J. Vaillancourt, J. Varey, H.
    Viggh, D. Woods, R. Monardez, A. Lue.  3.5-m f/1. Reflector + CCD.

Orbital elements:
2022 SL301                                               Earth MOID = 0.0007 AU
Epoch 2023 Sept. 13.0 TT = JDT 2460200.5                Veres                   
M 115.88475              (2000.0)            P               Q                  
n   0.35728875     Peri.   44.87148     +0.74913085     -0.66231547             
a   1.9669342      Node   356.54121     +0.53896694     +0.61984630             
e   0.5410050      Incl.   11.35868     +0.38512025     +0.42086669             
P   2.76           H   31.07          G   0.15           U   9                  
Residuals in seconds of arc
220919 P07  0.2-  0.2-    220919 P07  0.1-  0.1+    220919 P07  0.0   0.3+
220919 P07  0.3+  0.5+    220919 P07  0.1-  0.6-

Ephemeris:
2022 SL301               a,e,i = 1.97, 0.54, 11                  q = 0.9028
Date    TT    R. A. (2000) Decl.     Delta      r    Elong.  Phase     V
2023 09 25    12 46 39.0 -08 28 50   3.7507  2.7829    13.1     4.7
...
2023 10 10    13 06 48.8 -10 52 19   3.8198  2.8259     4.9     1.7
...
2023 10 18    13 17 32.8 -12 07 18   3.8404  2.8471     4.0     1.4
...
2023 10 24    13 25 34.2 -13 02 40   3.8483  2.8622     6.6     2.3
2023 10 25    13 26 54.3 -13 11 49   3.8490  2.8647     7.1     2.5
2023 10 26    13 28 14.3 -13 20 57   3.8495  2.8671     7.7     2.6
...
2023 11 01    13 36 13.0 -14 15 11   3.8487  2.8813    11.2     3.8
...
2023 11 09    13 46 47.4 -15 26 07   3.8374  2.8993    16.2     5.5
...
2023 11 24    14 06 18.0 -17 34 16   3.7849  2.9298    26.0     8.5

M. P. C. Staff               (C) Copyright 2023 MPC           M.P.E.C. 2023-U263





More information about the Iaude mailing list